Terminal Aerodrome Forecast
Issued by NWS

Home | Current Version | Previous Version | Text Only | Print | Product List | Glossary On
Versions: 1 2 3 4 5 6 7 8 9 10 11 12 13 14 15 16 17 18 19 20 21 22 23 24 25 26 27 28 29 30 31 32 33 34 35 36 37 38 39 40 41 42 43 44 45 46 47 48 49 50
000
FTUS41 KCTP 221120
TAFLNS
TAF
KLNS 221120Z 2212/2312 02007KT P6SM BKN019 OVC035
     FM221400 34011G22KT 3SM -SHRA BR BKN015 OVC030
     FM221800 33016G30KT 6SM -SHRA SCT025 BKN035
     FM222000 33014G24KT P6SM SCT025 OVC050
     FM230600 32014KT P6SM OVC040=

USA.gov is the U.S. government's official web portal to all federal, state and local government web resources and services.